Location: *
(13.2257°S, 48.7193°W)
Time: 13:55:04
(UTC+00:00)

Centaur AC-146 - Pass Details

Date: 13 February 2026
Orbit: 320 x 36129 km, 19.3° (Epoch: 9 March)

Event Time Altitude Azimuth Distance (km) Brightness Sun altitude
Exits shadow 06:59:00 36° 64° (ENE) 1,183 3.7 -31.6°
Drops below altitude 10° 07:00:49 10° 87° (E) 1,780 5.1 -31.2°
Sets 07:02:08 0° 94° (E) 2,392 6.1 -30.9°
